User: anonymous   Login
Location: Unspecified
(0.0000°N, 0.0000°E)
Time: 19:53:03
(UTC+00:00)
Language:

FENGYUN 1C DEB - Orbit

View from above orbital plane
View from above orbital plane
View from above satellite
View from above satellite

Ground track
Ground track

The orbit data is extracted from the following two-line orbital elements,

1 31313U 99025BPR 24057.44856118  .00000866  00000-0  41950-3 0  9993
2 31313  99.0798 299.5639 0045180 256.0242 103.5908 14.20679224877529
Epoch (UTC): 26 February 2024 10:45:55
Eccentricity: 0.0045180
inclination: 99.0798°
perigee height: 790 km
apogee height: 855 km
right ascension of ascending node: 299.5639°
argument of perigee: 256.0242°
revolutions per day: 14.20679224
mean anomaly at epoch: 103.5908°
orbit number at epoch: 87752

The dashed part of the orbit path shows where the satellite is in the earth's shadow,  

DLR